Weather in Yasnyye Zori

Russia / Belgorod Oblast     50°22′13″N   36°30′21″E
В апреле 2022 года жителям России запретили посещать сайт meteo.paraplan.net по решению Генеральной прокуратуры. Аудитория сайта уменьшилась в 10 раз. Владельцы сайта не видят смысла в поддержке погодного сервера в таких условиях. Сайт будет закрыт в октябре.
temp.,
°C
wind,
m/s
gust,
m/s
humid.,
%
clouds,
%
prec.,
mm/h
press.,
hPa
HPBL,
m
25 september, sun
sun2500:00+8w61286100 0.0 1010493
03:00+9wsw71383100 0.1 1010847
06:00+9w91785100 0.5 10091347
09:00+9w9147796 0.8 10101108
12:00+13w10135376 0.0 10111443
15:00+15w1013445 0.0 10121760
18:00+13w712525 0.0 1013790
21:00+9wsw4106794 0.0 1014235
26 september, mon
mon2600:00+9w4116674 0.0 1015277
03:00+9wsw3767100 0.0 1015212
06:00+10sw3769100 0.0 1015204
09:00+13sw456012 0.0 1015383
12:00+17wsw464695 0.0 10151365
15:00+18wsw3641100 0.0 10141924
18:00+14nnw2356100 0.0 101473
21:00+13ese2261100 0.0 101338
27 september, tue
tue2700:00+12ene3681100 1.6 1012169
03:00+12se3580100 1.8 1010116
06:00+11s3775100 0.0 1009163
09:00+14ssw4775100 0.0 1009322
12:00+15ssw2584100 0.1 1009340
15:00+16ssw3681100 0.5 1008551
18:00+13ese5995100 1.9 1007329
21:00+14ese51285100 2.1 1006356
28 september, wed
wed2800:00+14sse51277100 0.0 1004411
03:00+13e3786100 0.6 1002162
06:00+13sse51181100 0.5 1001373
09:00+13s5109185 1.3 1000369
12:00+18sw697372 0.1 10001188
15:00+17wsw687285 0.2 1002994
18:00+15w686991 0.0 1004782
21:00+14w3775100 0.0 1006302
29 september, thu
thu2900:00+12wsw34835 0.0 100873
03:00+11w22910 0.0 101028
06:00+10nw11915 0.0 101110
09:00+14s01785 0.0 1012215
12:00+18sw12585 0.0 1013886
15:00+20ssw114538 0.0 10141370
18:00+17e2256100 0.0 101513
21:00+15e3665100 0.0 1016116